Time,TemperatureF,DewpointF,PressureIn,WindDirection,WindDirectionDegrees,WindSpeedMPH,WindSpeedGustMPH,Humidity,HourlyPrecipIn,Conditions,Clouds,dailyrainin,SolarRadiationWatts/m^2,SoftwareType,DateUTC
2013-09-20 00:00:00,62.0,60.0,-100.00,NE,44,1.0,-999.0,94,-99.99,,,-99.99,0.000000,,2013-09-20 05:00:00,
2013-09-20 00:53:00,62.0,60.0,-100.00,NE,44,1.0,-999.0,94,-99.99,,,-99.99,0.000000,,2013-09-20 05:53:00,
2013-09-20 03:00:00,61.0,59.0,-100.00,North,7,1.0,-999.0,94,-99.99,,,-99.99,0.000000,,2013-09-20 08:00:00,
2013-09-20 03:52:00,61.0,59.0,-100.00,North,7,1.0,-999.0,94,-99.99,,,-99.99,0.000000,,2013-09-20 08:52:00,
2013-09-20 05:00:00,60.0,59.0,-100.00,NNE,17,2.0,-999.0,95,-99.99,,,-99.99,0.000000,,2013-09-20 10:00:00,
2013-09-20 05:53:00,60.0,59.0,-100.00,NNE,17,2.0,-999.0,95,-99.99,,,-99.99,0.000000,,2013-09-20 10:53:00,
2013-09-20 06:00:00,59.0,58.0,-100.00,NE,44,1.0,-999.0,95,-99.99,,,-99.99,0.000000,,2013-09-20 11:00:00,
2013-09-20 06:52:00,59.0,58.0,-100.00,NE,44,1.0,-999.0,95,-99.99,,,-99.99,0.000000,,2013-09-20 11:52:00,
2013-09-20 07:00:00,59.0,58.0,-100.00,NE,34,2.0,-999.0,96,-99.99,,,-99.99,4.570000,,2013-09-20 12:00:00,
2013-09-20 07:52:00,59.0,58.0,-100.00,NE,34,2.0,-999.0,96,-99.99,,,-99.99,4.570000,,2013-09-20 12:52:00,
2013-09-20 11:00:00,82.0,63.0,-100.00,SSW,204,5.0,-999.0,52,-99.99,,,-99.99,617.900024,,2013-09-20 16:00:00,
2013-09-20 11:53:00,82.0,63.0,-100.00,SSW,204,5.0,-999.0,52,-99.99,,,-99.99,617.900024,,2013-09-20 16:53:00,
2013-09-20 15:00:00,87.0,57.0,-100.00,South,187,6.0,-999.0,36,-99.99,,,-99.99,623.000000,,2013-09-20 20:00:00,
2013-09-20 15:52:00,87.0,57.0,-100.00,South,187,6.0,-999.0,36,-99.99,,,-99.99,623.000000,,2013-09-20 20:52:00,
2013-09-20 16:00:00,85.0,58.0,-100.00,SSW,211,7.0,-999.0,40,-99.99,,,-99.99,467.700012,,2013-09-20 21:00:00,
2013-09-20 16:55:00,85.0,58.0,-100.00,SSW,211,7.0,-999.0,40,-99.99,,,-99.99,467.700012,,2013-09-20 21:55:00,
2013-09-20 17:00:00,83.0,60.0,-100.00,SSW,212,7.0,-999.0,47,-99.99,,,-99.99,240.199997,,2013-09-20 22:00:00,
2013-09-20 17:53:00,83.0,60.0,-100.00,SSW,212,7.0,-999.0,47,-99.99,,,-99.99,240.199997,,2013-09-20 22:53:00,
2013-09-20 18:00:00,80.0,62.0,-100.00,SSW,206,4.0,-999.0,54,-99.99,,,-99.99,125.500000,,2013-09-20 23:00:00,
2013-09-20 18:53:00,80.0,62.0,-100.00,SSW,206,4.0,-999.0,54,-99.99,,,-99.99,125.500000,,2013-09-20 23:53:00,